Effective Sunday, March 17, 2024, the National Weather Service National Data Buoy Center will discontinue its Dial-A-Buoy Interactive Voice Response system. For more information, see Service Change Notice 24-06 (PDF).

Station CMAN4 - 8536110 - Cape May, NJ Image indicating link to RSS feed of recent meteorological observations for station CMAN4


Conditions at CMAN4 as of
(10:54 pm EST on 02/21/2024)
0354 GMT on 02/22/2024:
     

Click on the graph icon in the table below to see a time series plot of the last five days of that observation.

5-day plot - Wind Direction Wind Direction (WDIR): E ( 90 deg true )
5-day plot - Wind Speed Wind Speed (WSPD): 4.1 kts
5-day plot - Wind Gust Wind Gust (GST): 6.0 kts
5-day plot - Atmospheric Pressure Atmospheric Pressure (PRES):30.26 in
5-day plot - Air Temperature Air Temperature (ATMP): 37.2 °F
5-day plot - Water Temperature Water Temperature (WTMP): 45.0 °F
5-day plot - Wind Chill Wind Chill (CHILL): 33.4 °F
5-day plot - Wind Speed at 10 Meters Wind Speed at 10 meters (WSPD10M): 3.9 kts
5-day plot - Wind Speed at 20 Meters Wind Speed at 20 meters (WSPD20M): 3.9 kts
5-day plot -  Wind Speed, Wind Gust and Atmospheric Pressure Combined plot of Wind Speed, Gust, and Air Pressure
NOS Water Level Observation Network Water Level
Previous observations
TIME
(EST)
5-day plot - Wind Direction
WDIR
 
5-day plot - Wind Speed
WSPD
kts
5-day plot - Wind Gust
GST
kts
5-day plot - Wave Height
WVHT
ft
5-day plot - Dominant Wave Period
DPD
sec
5-day plot - Average Wave Period
APD
sec
5-day plot - Mean Wave Direction
MWD
 
5-day plot - Atmospheric Pressure
PRES
in
5-day plot - Pressure Tendency
PTDY
in
5-day plot - Air Temperature
ATMP
°F
5-day plot - Water Temperature
WTMP
°F
5-day plot - Dew Point
DEWP
°F
5-day plot - Salinity
SAL
psu
5-day plot - Visibility
VIS
nmi
5-day plot - Tide (above MLLW)
TIDE
ft
2024-02-21 10:48 pm E 4.1 6.0----30.26- 37.0 45.0----
2024-02-21 10:42 pm E 1.9 2.9----30.26- 37.0 45.0----
2024-02-21 10:36 pm E 2.9 4.1----30.26- 37.2 45.0----
2024-02-21 10:30 pm E 1.0 2.9----30.27- 37.2 45.0----
2024-02-21 10:24 pm E 2.9 8.0----30.26- 37.2 45.0----
2024-02-21 10:18 pmENE 2.9 5.1----30.27- 37.0 45.0----
2024-02-21 10:12 pm E 2.9 4.1----30.27- 37.0 45.0----
2024-02-21 10:06 pmENE 2.9 5.1----30.27- 37.2 45.0----
2024-02-21 10:00 pmENE 2.9 4.1----30.28-0.03 37.2 45.0----
2024-02-21 09:54 pm E 5.1 6.0----30.27- 37.0 45.0----
2024-02-21 09:48 pm E 6.0 8.0----30.28- 37.4 45.0----
2024-02-21 09:42 pm E 5.1 8.0----30.28- 37.8 45.0----
2024-02-21 09:36 pm E 6.0 7.0----30.29- 37.6 45.0----
2024-02-21 09:30 pm E 2.9 6.0----30.30- 37.6 45.0----
2024-02-21 09:24 pmENE 1.9 2.9----30.31- 37.8 45.0----
2024-02-21 09:18 pm E 1.9 4.1----30.31- 37.8 45.0----
2024-02-21 09:12 pm E 2.9 2.9----30.30- 37.8 45.0----
2024-02-21 09:06 pm- 0.0 2.9----30.31- 37.6 45.0----
2024-02-21 09:00 pmENE 1.9 4.1----30.30+0.00 37.6 45.0----
2024-02-21 08:54 pmENE 1.9 5.1----30.30- 37.6 45.0----
2024-02-21 08:48 pmENE 4.1 7.0----30.30- 37.6 45.0----
2024-02-21 08:42 pmENE 4.1 6.0----30.30- 37.8 45.0----
2024-02-21 08:36 pm E 6.0 9.9----30.29- 38.1 45.0----
2024-02-21 08:30 pm E 7.0 8.0----30.29- 38.3 45.0----
2024-02-21 08:24 pm E 6.0 8.9----30.29- 37.8 45.0----
2024-02-21 08:18 pm E 6.0 8.0----30.29- 37.6 45.1----
2024-02-21 08:12 pm E 2.9 7.0----30.29- 37.8 45.0----
2024-02-21 08:06 pm E 6.0 9.9----30.30- 37.8 45.0----
2024-02-21 08:00 pm E 7.0 11.1----30.30-0.03 37.9 45.0----
2024-02-21 07:54 pm E 8.9 11.1----30.30- 37.9 45.0----
2024-02-21 07:48 pm E 5.1 8.9----30.31- 38.1 45.0----
2024-02-21 07:42 pm E 7.0 9.9----30.31- 38.3 45.0----
2024-02-21 07:36 pm E 9.9 14.0----30.31- 38.5 45.0----
2024-02-21 07:30 pm E 8.0 11.1----30.31- 38.5 45.0----
2024-02-21 07:24 pm E 4.1 9.9----30.31- 38.7 45.0----
2024-02-21 07:18 pm E 7.0 9.9----30.30- 38.5 45.0----
2024-02-21 07:12 pm E 7.0 12.0----30.30- 38.5 45.0----
2024-02-21 07:06 pm E 8.0 9.9----30.30- 38.1 45.0----
2024-02-21 07:00 pm E 6.0 8.9----30.30-0.03 38.1 45.0----
2024-02-21 06:54 pmENE 2.9 8.0----30.30- 37.9 45.0----
2024-02-21 06:48 pmENE 5.1 9.9----30.30- 37.9 45.0----
2024-02-21 06:42 pmENE 8.0 12.0----30.30- 37.9 45.1----
2024-02-21 06:36 pmENE 6.0 15.0----30.30- 38.3 45.1----
2024-02-21 06:30 pm E 11.1 14.0----30.30- 38.5 45.1----
2024-02-21 06:24 pmENE 6.0 8.9----30.30- 38.7 45.1----
2024-02-21 06:00 pmENE 6.0 8.9----30.31-0.02 38.8 45.3----
2024-02-21 05:54 pmENE 6.0 13.0----30.31- 39.0 45.3----
2024-02-21 05:48 pm E 7.0 9.9----30.32- 39.0 45.3----
2024-02-21 05:42 pm E 5.1 11.1----30.32- 39.2 45.3----
2024-02-21 05:36 pmENE 5.1 9.9----30.32- 39.2 45.3----
2024-02-21 05:30 pmENE 5.1 9.9----30.32- 39.0 45.3----
2024-02-21 05:24 pmENE 6.0 8.0----30.32- 39.0 45.3----
2024-02-21 05:18 pmENE 4.1 11.1----30.33- 39.2 45.5----
2024-02-21 05:12 pm NE 7.0 11.1----30.33- 39.0 45.5----
2024-02-21 05:06 pm NE 7.0 9.9----30.33- 39.2 45.5----
2024-02-21 05:00 pmENE 7.0 12.0----30.33-0.01 39.0 45.5----
2024-02-21 04:54 pm E 6.0 12.0----30.33- 39.2 45.5----
2024-02-21 04:48 pm NE 7.0 9.9----30.33- 39.2 45.5----
2024-02-21 04:42 pm NE 8.0 12.0----30.33- 39.0 45.5----
2024-02-21 04:36 pm NE 8.0 12.0----30.33- 39.2 45.5----
2024-02-21 04:30 pm NE 8.0 13.0----30.33- 38.8 45.5----
2024-02-21 04:24 pm E 6.0 8.9----30.33- 39.2 45.5----
2024-02-21 04:18 pm NE 7.0 12.0----30.33- 39.2 45.5----
2024-02-21 04:12 pm NE 5.1 8.9----30.34- 39.4 45.5----
2024-02-21 04:06 pm NE 6.0 13.0----30.33- 39.4 45.5----
2024-02-21 04:00 pmENE 7.0 11.1----30.33-0.04 39.6 45.5----
2024-02-21 03:54 pm NE 7.0 12.0----30.33- 39.9 45.5----
2024-02-21 03:48 pmENE 6.0 12.0----30.33- 39.4 45.5----
2024-02-21 03:42 pmENE 8.0 12.0----30.33- 39.4 45.5----
2024-02-21 03:36 pm NE 8.9 14.0----30.33- 39.4 45.5----
2024-02-21 03:30 pm NE 8.9 12.0----30.33- 39.6 45.5----
2024-02-21 03:24 pmENE 8.0 13.0----30.33- 40.1 45.5----
2024-02-21 03:18 pm NE 8.9 14.0----30.32- 39.9 45.5----
2024-02-21 03:12 pm NE 9.9 13.0----30.33- 39.6 45.5----
2024-02-21 03:06 pm NE 8.9 14.0----30.32- 40.1 45.5----
2024-02-21 03:00 pmENE 8.9 12.0----30.32-0.08 40.3 45.5----
2024-02-21 02:54 pm E 8.9 15.0----30.33- 40.3 45.5----
2024-02-21 02:48 pm E 8.9 13.0----30.33- 39.9 45.3----
2024-02-21 02:42 pm NE 8.0 11.1----30.33- 40.3 45.3----
2024-02-21 02:36 pm NE 6.0 11.1----30.33- 41.0 45.3----
2024-02-21 02:30 pm E 8.0 13.0----30.33- 39.9 45.1----
2024-02-21 02:24 pmENE 6.0 12.0----30.34- 41.0 45.1----
2024-02-21 02:18 pmENE 8.0 11.1----30.34- 40.6 45.0----
2024-02-21 02:12 pmENE 8.9 14.0----30.34- 40.3 45.0----
2024-02-21 02:06 pmENE 7.0 12.0----30.34- 41.0 44.8----
2024-02-21 02:00 pm E 6.0 13.0----30.34-0.09 39.9 44.8----
2024-02-21 01:54 pmENE 9.9 15.9----30.35- 40.6 44.8----
2024-02-21 01:48 pm E 9.9 15.0----30.35- 39.7 44.6----
2024-02-21 01:42 pmENE 5.1 12.0----30.35- 41.0 44.6----
2024-02-21 01:36 pm E 8.0 13.0----30.36- 40.3 44.6----
2024-02-21 01:30 pm E 7.0 12.0----30.36- 39.7 44.6----
2024-02-21 01:24 pmENE 7.0 13.0----30.37- 39.9 44.6----
2024-02-21 01:18 pm E 7.0 12.0----30.37- 40.1 44.6----
2024-02-21 01:12 pm NE 7.0 11.1----30.37- 40.3 44.6----
2024-02-21 01:06 pmENE 4.1 11.1----30.38- 40.1 44.6----
2024-02-21 01:00 pmENE 6.0 12.0----30.38-0.08 40.3 44.6----
2024-02-21 12:54 pmENE 7.0 14.0----30.38- 40.5 44.4----
2024-02-21 12:48 pm E 8.0 13.0----30.38- 40.1 44.4----
2024-02-21 12:42 pmENE 8.0 13.0----30.38- 39.6 44.4----
2024-02-21 12:36 pmENE 8.0 15.0----30.38- 39.7 44.4----
2024-02-21 12:30 pmENE 8.0 13.0----30.39- 40.3 44.4----
2024-02-21 12:24 pm NE 8.0 15.0----30.39- 40.3 44.4----
2024-02-21 12:18 pm NE 9.9 18.1----30.39- 40.1 44.4----
2024-02-21 12:12 pm NE 12.0 15.0----30.40- 39.9 44.4----
2024-02-21 12:06 pmENE 8.9 15.0----30.40- 40.6 44.4----
2024-02-21 12:00 pm NE 8.9 14.0----30.40-0.04 40.1 44.4----
2024-02-21 11:54 amENE 8.9 14.0----30.40- 40.1 44.4----
2024-02-21 11:48 am NE 11.1 14.0----30.41- 40.1 44.4----
2024-02-21 11:42 amENE 8.9 18.1----30.41- 40.3 44.4----
2024-02-21 11:36 amENE 11.1 17.1----30.41- 40.3 44.4----
2024-02-21 11:30 amENE 8.9 15.0----30.42- 40.1 44.4----
2024-02-21 11:24 amENE 11.1 15.9----30.42- 39.9 44.4----
2024-02-21 11:18 amENE 8.9 12.0----30.42- 39.9 44.4----
2024-02-21 11:12 amENE 8.9 15.9----30.43- 39.7 44.4----
2024-02-21 11:06 am NE 9.9 13.0----30.43- 40.1 44.4----
2024-02-21 11:00 am NE 8.0 13.0----30.44+0.00 40.1 44.6----
2024-02-21 10:54 amENE 7.0 13.0----30.43- 40.5 44.6----
2024-02-21 10:48 amENE 8.0 12.0----30.44- 40.6 44.2----
2024-02-21 10:42 am NE 8.9 12.0----30.44- 40.1 44.2----
2024-02-21 10:36 amENE 6.0 9.9----30.44- 40.1 44.2----
2024-02-21 10:30 amNNE 2.9 8.9----30.44- 38.7 44.2----
2024-02-21 10:24 amNNW 6.0 9.9----30.45- 38.3 44.2----
2024-02-21 10:18 amNNW 7.0 11.1----30.45- 38.1 44.2----
2024-02-21 10:12 amNNW 8.0 9.9----30.45- 37.8 44.2----
2024-02-21 10:06 amNNW 5.1 8.0----30.45- 37.9 44.2----
2024-02-21 10:00 amNNW 7.0 9.9----30.45+0.03- 44.1----
2024-02-21 09:54 am N 1.9 5.1----30.45-- 44.1----
2024-02-21 09:48 amNNE 1.9 7.0----30.45- 38.8 44.1----
2024-02-21 09:42 am N 2.9 5.1----30.45- 38.1 44.1----
2024-02-21 09:36 am N 2.9 6.0----30.45- 37.9 44.1----
2024-02-21 09:30 am N 2.9 5.1----30.45- 37.9 44.1----
2024-02-21 09:24 amNNW 2.9 7.0----30.45- 37.8 44.1----
2024-02-21 09:18 am N 4.1 8.0----30.45- 37.4 44.1----
2024-02-21 09:12 am N 4.1 7.0----30.45- 37.2 44.1----
2024-02-21 09:06 amNNE 4.1 6.0----30.45- 36.7 44.1----
2024-02-21 09:00 am N 4.1 6.0----30.45+0.01 36.3 44.1----
2024-02-21 08:54 amNNE 4.1 6.0----30.45- 35.6 44.1----
2024-02-21 08:48 am N 4.1 7.0----30.45- 35.4 44.1----
2024-02-21 08:42 am N 5.1 7.0----30.45- 35.1 44.1----
2024-02-21 08:36 am N 4.1 6.0----30.45- 34.7 44.1----
2024-02-21 08:30 am N 4.1 5.1----30.45- 34.2 44.1----
2024-02-21 08:24 am N 2.9 4.1----30.45- 33.6 43.9----
2024-02-21 08:18 am N 2.9 5.1----30.45- 33.4 43.9----
2024-02-21 08:12 amNNE 2.9 5.1----30.44- 33.3 43.9----
2024-02-21 08:06 am N 2.9 5.1----30.44- 33.1 43.9----
2024-02-21 08:00 amNNE 1.9 4.1----30.44+0.00 33.1 43.9----
2024-02-21 07:54 am N 2.9 5.1----30.44- 32.7 43.9----
2024-02-21 07:48 am N 2.9 5.1----30.43- 32.0 43.9----
2024-02-21 07:42 am N 2.9 6.0----30.43- 31.8 43.9----
2024-02-21 07:36 amNNE 4.1 7.0----30.43- 31.5 43.9----
2024-02-21 07:30 amNNE 4.1 6.0----30.43- 31.3 43.9----
2024-02-21 07:24 am N 4.1 6.0----30.43- 31.1 43.9----
2024-02-21 07:18 am N 4.1 6.0----30.43- 30.9 43.9----
2024-02-21 07:12 am N 4.1 6.0----30.43- 30.9 43.9----
2024-02-21 07:06 am N 4.1 6.0----30.43- 30.9 43.9----
2024-02-21 07:00 am N 4.1 5.1----30.43+0.00 30.7 43.9----
2024-02-21 06:54 am N 2.9 5.1----30.43- 30.4 43.9----
2024-02-21 06:48 am N 2.9 5.1----30.43- 29.8 43.7----
2024-02-21 06:42 am N 2.9 4.1----30.43- 29.7 43.7----
2024-02-21 06:36 am N 1.9 2.9----30.43- 29.8 43.7----
2024-02-21 06:30 am- 0.0 4.1----30.43- 29.8 43.7----
2024-02-21 06:24 amNNE 1.9 2.9----30.43- 29.8 43.7----
2024-02-21 06:18 am NE 1.0 4.1----30.43- 30.0 43.7----
2024-02-21 06:12 amNNE 2.9 4.1----30.43- 29.7 43.7----
2024-02-21 06:06 amNNE 2.9 4.1----30.43- 29.7 43.9----
2024-02-21 06:00 amNNE 1.9 4.1----30.43-0.01 29.7 43.9----
2024-02-21 05:54 amENE 1.9 5.1----30.43- 29.5 43.9----
2024-02-21 05:48 amNNE 4.1 5.1----30.43- 29.3 43.9----
2024-02-21 05:42 amNNE 2.9 5.1----30.43- 29.3 43.9----
2024-02-21 05:36 amNNE 2.9 5.1----30.43- 29.3 43.9----
2024-02-21 05:30 amNNE 2.9 5.1----30.43- 29.3 43.9----
2024-02-21 05:24 amNNE 4.1 5.1----30.43- 29.5 43.9----
2024-02-21 05:18 amNNE 1.9 5.1----30.43- 29.5 43.9----
2024-02-21 05:12 am N 4.1 6.0----30.44- 29.3 43.9----
2024-02-21 05:06 am N 4.1 6.0----30.43- 29.1 43.9----
2024-02-21 05:00 amNNE 5.1 6.0----30.43-0.01 29.1 43.9----
2024-02-21 04:54 amNNE 2.9 5.1----30.43- 29.3 43.9----
2024-02-21 04:48 am N 2.9 5.1----30.43- 29.3 44.1----
2024-02-21 04:42 amNNE 2.9 5.1----30.43- 29.7 44.1----
2024-02-21 04:36 am N 2.9 6.0----30.43- 29.7 44.1----
2024-02-21 04:30 amNNE 4.1 6.0----30.43- 29.5 44.1----
2024-02-21 04:24 am N 2.9 5.1----30.43- 29.5 44.1----
2024-02-21 04:18 am N 2.9 6.0----30.43- 29.5 44.1----
2024-02-21 04:12 am N 4.1 5.1----30.43- 29.3 44.1----
2024-02-21 04:06 amNNE 4.1 5.1----30.43- 29.5 44.1----
2024-02-21 04:00 amNNE 2.9 4.1----30.43-0.01 29.5 44.1----
2024-02-21 03:54 am N 2.9 4.1----30.43- 29.5 44.1----
2024-02-21 03:48 amNNE 2.9 5.1----30.43- 29.5 44.2----
2024-02-21 03:42 amNNE 4.1 5.1----30.43- 29.5 44.2----
2024-02-21 03:36 am N 4.1 6.0----30.43- 29.7 44.2----
2024-02-21 03:30 amNNE 2.9 5.1----30.43- 29.7 44.2----
2024-02-21 03:24 am N 2.9 5.1----30.43- 29.7 44.2----
2024-02-21 03:18 amNNE 2.9 5.1----30.43- 29.8 44.4----
2024-02-21 03:12 am N 4.1 5.1----30.44- 30.2 44.4----
2024-02-21 03:06 am N 2.9 5.1----30.44- 30.2 44.4----
2024-02-21 03:00 am N 4.1 5.1----30.44-0.01 30.2 44.4----
2024-02-21 02:54 am N 4.1 5.1----30.45- 30.4 44.4----
2024-02-21 02:48 am N 4.1 5.1----30.45- 30.6 44.4----
2024-02-21 02:42 am N 2.9 5.1----30.45- 30.6 44.4----
2024-02-21 02:36 am N 2.9 4.1----30.45- 30.7 44.4----
2024-02-21 02:30 am N 2.9 2.9----30.45- 30.9 44.4----
2024-02-21 02:24 am N 1.9 2.9----30.45- 31.3 44.4----
2024-02-21 02:18 am N 1.9 2.9----30.45- 31.5 44.4----
2024-02-21 02:12 am N 1.9 2.9----30.45- 31.5 44.6----
2024-02-21 02:06 amNNE 1.9 2.9----30.45- 31.8 44.6----
2024-02-21 02:00 amNNE 2.9 2.9----30.45-0.02- 44.6----
2024-02-21 01:54 amNNE 1.0 2.9----30.45-- 44.6----
2024-02-21 01:48 amNNE 1.9 1.9----30.45- 32.4 44.6----
2024-02-21 01:42 amNNE 1.0 1.9----30.45- 32.5 44.6----
2024-02-21 01:36 amNNE 1.0 1.9----30.45- 32.7 44.6----
2024-02-21 01:30 am- 0.0 2.9----30.44- 33.1 44.6----
2024-02-21 01:24 am NE 1.0 4.1----30.44- 33.3 44.6----
2024-02-21 01:18 am NE 1.9 5.1----30.45- 33.3 44.8----
2024-02-21 01:12 amENE 2.9 6.0----30.45- 33.4 44.8----
2024-02-21 01:06 amENE 2.9 5.1----30.45- 33.4 44.8----
2024-02-21 01:00 am NE 1.9 5.1----30.45-0.03 33.4 44.8----
2024-02-21 12:54 am NE 2.9 5.1----30.45- 33.4 44.8----
2024-02-21 12:48 am NE 2.9 5.1----30.45- 33.6 45.0----
2024-02-21 12:42 am NE 2.9 6.0----30.45- 33.6 45.0----
2024-02-21 12:36 am NE 2.9 6.0----30.45- 33.6 45.0----
2024-02-21 12:30 am NE 2.9 5.1----30.45- 33.6 45.0----
2024-02-21 12:24 amENE 5.1 8.0----30.45- 33.8 45.0----
2024-02-21 12:18 am NE 2.9 5.1----30.45- 33.6 45.0----
2024-02-21 12:12 am NE 2.9 5.1----30.45- 33.6 45.0----
2024-02-21 12:06 am NE 2.9 5.1----30.46- 33.6 45.0----
2024-02-21 12:00 am NE 2.9 6.0----30.46-0.01 33.8 45.0----
2024-02-20 11:54 pm NE 1.9 5.1----30.46- 33.6 45.0----
2024-02-20 11:48 pm NE 1.9 2.9----30.46- 33.4 45.0----
2024-02-20 11:42 pm NE 1.9 5.1----30.46- 33.8 45.0----
2024-02-20 11:36 pm NE 2.9 6.0----30.46- 33.8 45.0----
2024-02-20 11:30 pm NE 1.9 4.1----30.46- 33.6 45.0----
2024-02-20 11:24 pm NE 1.0 4.1----30.47- 33.4 45.0----
2024-02-20 11:18 pm NE 1.0 4.1----30.47- 33.8 45.0----
2024-02-20 11:12 pm NE 1.9 5.1----30.47- 33.8 45.0----
2024-02-20 11:06 pm NE 2.9 5.1----30.47- 33.8 45.0----
2024-02-20 11:00 pmENE 4.1 5.1----30.47+0.01 33.8 45.0----
2024-02-20 10:54 pm NE 1.9 5.1----30.47- 33.8 45.0----